timestamp,surface_pressure_avg,surface_temp_avg,battery_voltage,lat,long
2020-11-08 00:09:01+00:00,241.6797,8.18,12.81,47.84626,-54.09684
2020-11-08 00:19:01+00:00,242.0664,8.19,12.73,47.84626,-54.09684
2020-11-08 00:29:01+00:00,245.8647,8.18,12.73,47.84626,-54.09684
2020-11-08 00:39:01+00:00,248.5664,8.1,12.73,47.84626,-54.09684
2020-11-08 00:49:01+00:00,248.7298,8.1,12.73,47.84626,-54.09684
2020-11-08 00:59:01+00:00,251.1181,8.1,12.73,47.84626,-54.09684
2020-11-08 01:09:01+00:00,254.5947,8.1,12.73,47.84626,-54.09684
2020-11-08 01:19:01+00:00,254.9097,8.1,12.73,47.84626,-54.09684
2020-11-08 01:29:01+00:00,258.6297,8.28,12.73,47.84626,-54.09684
2020-11-08 01:39:01+00:00,263.983,8.49,12.73,47.84626,-54.09684
2020-11-08 01:49:01+00:00,268.6547,8.5,12.73,47.84626,-54.09684
2020-11-08 01:59:01+00:00,272.9497,8.34,12.73,47.84626,-54.09684
2020-11-08 02:09:01+00:00,279.7513,8.45,12.73,47.84626,-54.09684
2020-11-08 02:19:01+00:00,286.1414,8.4,12.65,47.84626,-54.09684
2020-11-08 02:29:01+00:00,291.8197,8.44,12.65,47.84626,-54.09684
2020-11-08 02:39:01+00:00,295.8597,8.45,12.65,47.84626,-54.09684
2020-11-08 02:49:01+00:00,299.2864,8.46,12.65,47.84626,-54.09684
2020-11-08 02:59:01+00:00,303.5046,8.45,12.65,47.84626,-54.09684
2020-11-08 03:09:01+00:00,311.1697,8.46,12.65,47.84626,-54.09684
2020-11-08 03:19:01+00:00,314.6564,8.44,12.65,47.84626,-54.09684
2020-11-08 03:29:01+00:00,316.5713,8.4,12.65,47.84626,-54.09684
2020-11-08 03:39:01+00:00,319.7313,8.4,12.65,47.84626,-54.09684
2020-11-08 03:49:01+00:00,325.3614,8.4,12.65,47.84626,-54.09684
2020-11-08 03:59:01+00:00,327.9646,8.43,12.65,47.84626,-54.09684
2020-11-08 04:09:01+00:00,328.1763,8.4,12.65,47.84626,-54.09684
2020-11-08 04:19:01+00:00,331.86300000000006,8.5,12.65,47.84626,-54.09684
2020-11-08 04:29:01+00:00,335.1796,8.5,12.65,47.84626,-54.09684
2020-11-08 04:39:01+00:00,334.793,8.5,12.65,47.84626,-54.09684
2020-11-08 04:49:01+00:00,335.5397,8.5,12.65,47.84626,-54.09684
2020-11-08 04:59:01+00:00,340.8813,8.5,12.65,47.84626,-54.09684
2020-11-08 05:09:01+00:00,342.3213,8.5,12.65,47.84626,-54.09684
2020-11-08 05:19:01+00:00,339.358,8.5,12.65,47.84626,-54.09684
2020-11-08 05:29:01+00:00,340.6897,8.5,12.65,47.84626,-54.09684
2020-11-08 05:39:01+00:00,341.1447,8.5,12.65,47.84626,-54.09684
2020-11-08 05:49:01+00:00,337.3646,8.4,12.65,47.84626,-54.09684
2020-11-08 05:59:01+00:00,335.2163,8.48,12.65,47.84626,-54.09684
2020-11-08 06:09:01+00:00,330.9313,8.5,12.65,47.84626,-54.09684
2020-11-08 06:19:01+00:00,326.7097,8.5,12.57,47.84626,-54.09684
2020-11-08 06:29:01+00:00,322.923,8.5,12.57,47.84626,-54.09684
2020-11-08 06:39:01+00:00,321.3463,8.5,12.57,47.84626,-54.09684
2020-11-08 06:49:01+00:00,316.0597,8.5,12.57,47.84626,-54.09684
2020-11-08 06:59:01+00:00,312.4897,8.4,12.57,47.84626,-54.09684
2020-11-08 07:09:01+00:00,312.1547,8.3,12.57,47.84626,-54.09684
2020-11-08 07:19:01+00:00,307.8213,8.3,12.57,47.84626,-54.09684
2020-11-08 07:29:01+00:00,299.6364,8.3,12.57,47.84626,-54.09684
2020-11-08 07:39:01+00:00,295.5214,8.38,12.57,47.84626,-54.09684
2020-11-08 07:49:01+00:00,293.228,8.26,12.57,47.84626,-54.09684
2020-11-08 07:59:01+00:00,286.1247,8.24,12.57,47.84626,-54.09684
2020-11-08 08:09:01+00:00,277.6614,8.44,12.57,47.84626,-54.09684
2020-11-08 08:19:01+00:00,275.7397,8.4,12.57,47.84626,-54.09684
2020-11-08 08:29:01+00:00,276.5663,8.4,12.57,47.84626,-54.09684
2020-11-08 08:39:01+00:00,272.3631,8.02,12.57,47.84626,-54.09684
2020-11-08 08:49:01+00:00,268.9048,8.45,12.57,47.84626,-54.09684
2020-11-08 08:59:01+00:00,267.3148,8.5,12.57,47.84626,-54.09684
2020-11-08 09:09:01+00:00,266.1831,8.5,12.57,47.84626,-54.09684
2020-11-08 09:19:01+00:00,263.8414,8.4,12.49,47.84626,-54.09684
2020-11-08 09:29:01+00:00,260.8231,8.3,12.49,47.84626,-54.09684
2020-11-08 09:39:01+00:00,258.4431,8.4,12.49,47.84626,-54.09684
2020-11-08 09:49:01+00:00,257.2764,8.2,12.49,47.84626,-54.09684
2020-11-08 09:59:01+00:00,254.5914,8.19,12.49,47.84626,-54.09684
2020-11-08 10:09:01+00:00,254.7198,8.1,12.49,47.84626,-54.09684
2020-11-08 10:19:01+00:00,256.5931,8.1,12.49,47.84626,-54.09684
2020-11-08 10:29:01+00:00,258.4714,8.1,12.49,47.84626,-54.09684
2020-11-08 10:39:01+00:00,258.7031,8.1,12.49,47.84626,-54.09684
2020-11-08 10:49:01+00:00,259.1164,8.1,12.49,47.84626,-54.09684
2020-11-08 10:59:01+00:00,259.6314,8.1,12.49,47.84626,-54.09684
2020-11-08 11:09:01+00:00,259.1614,8.1,12.49,47.84626,-54.09684
2020-11-08 11:19:01+00:00,261.0881,8.1,13.05,47.84626,-54.09684
2020-11-08 11:29:01+00:00,263.4131,8.1,13.05,47.84626,-54.09684
2020-11-08 11:39:01+00:00,266.2981,8.1,13.05,47.84626,-54.09684
2020-11-08 11:49:01+00:00,266.0447,8.1,13.05,47.84626,-54.09684
2020-11-08 11:59:01+00:00,266.3664,8.2,13.05,47.84626,-54.09684
2020-11-08 12:09:01+00:00,267.613,8.3,13.05,47.84626,-54.09684
2020-11-08 12:19:01+00:00,269.9614,8.39,14.4,47.84626,-54.09684
2020-11-08 12:29:01+00:00,272.7047,8.3,14.4,47.84626,-54.09684
2020-11-08 12:39:01+00:00,276.2114,7.83,14.4,47.84626,-54.09684
2020-11-08 12:49:01+00:00,280.2414,8.3,14.4,47.84626,-54.09684
2020-11-08 12:59:01+00:00,282.2814,8.2,14.4,47.84626,-54.09684
2020-11-08 13:09:01+00:00,283.9681,8.2,14.4,47.84626,-54.09684
2020-11-08 13:19:01+00:00,286.5264,8.1,14.64,47.84626,-54.09684
2020-11-08 13:29:01+00:00,290.0864,8.1,14.64,47.84626,-54.09684
2020-11-08 13:39:01+00:00,291.5648,8.1,14.64,47.84626,-54.09684
2020-11-08 13:49:01+00:00,294.2563,8.05,14.64,47.84626,-54.09684
2020-11-08 13:59:01+00:00,298.288,8.09,14.64,47.84626,-54.09684
2020-11-08 14:09:01+00:00,300.7414,8.03,14.64,47.84626,-54.09684
2020-11-08 14:19:01+00:00,306.293,7.9,14.72,47.84626,-54.09684
2020-11-08 14:29:01+00:00,312.0413,7.98,14.72,47.84626,-54.09684
2020-11-08 14:39:01+00:00,317.3713,8.0,14.72,47.84626,-54.09684
2020-11-08 14:49:01+00:00,320.5596,8.03,14.72,47.84626,-54.09684
2020-11-08 14:59:01+00:00,327.4897,8.09,14.72,47.84626,-54.09684
2020-11-08 15:09:01+00:00,330.4497,8.1,14.72,47.84626,-54.09684
2020-11-08 15:19:01+00:00,332.0963,8.09,14.64,47.84626,-54.09684
2020-11-08 15:29:01+00:00,335.858,8.0,14.64,47.84626,-54.09684
2020-11-08 15:39:01+00:00,336.6978,8.21,14.64,47.84626,-54.09684
2020-11-08 15:49:01+00:00,337.1229,8.3,14.64,47.84626,-54.09684
2020-11-08 15:59:01+00:00,341.9113,8.3,14.64,47.84626,-54.09684
2020-11-08 16:09:01+00:00,343.5947,8.3,14.64,47.84626,-54.09684
2020-11-08 16:19:01+00:00,342.1063,8.27,14.64,47.84626,-54.09684
2020-11-08 16:29:01+00:00,340.5314,8.2,14.64,47.84626,-54.09684
2020-11-08 16:39:01+00:00,345.5262,8.2,14.64,47.84626,-54.09684
2020-11-08 16:49:01+00:00,346.548,8.19,14.64,47.84626,-54.09684
2020-11-08 16:59:01+00:00,346.07800000000015,8.2,14.64,47.84626,-54.09684
2020-11-08 17:09:01+00:00,343.9897,8.25,14.64,47.84626,-54.09684
2020-11-08 17:19:01+00:00,342.958,8.2,14.48,47.84626,-54.09684
2020-11-08 17:29:01+00:00,340.4763,8.26,14.48,47.84626,-54.09684
2020-11-08 17:39:01+00:00,340.668,8.38,14.48,47.84626,-54.09684
2020-11-08 17:49:01+00:00,339.5729,8.4,14.48,47.84626,-54.09684
2020-11-08 17:59:01+00:00,336.9814,8.37,14.48,47.84626,-54.09684
2020-11-08 18:09:01+00:00,335.233,8.37,14.48,47.84626,-54.09684
2020-11-08 18:19:01+00:00,333.1197,8.3,14.32,47.84626,-54.09684
2020-11-08 18:29:01+00:00,331.1146,8.3,14.32,47.84626,-54.09684
2020-11-08 18:39:01+00:00,329.3979,8.3,14.32,47.84626,-54.09684
2020-11-08 18:49:01+00:00,324.6297,8.29,14.32,47.84626,-54.09684
2020-11-08 18:59:01+00:00,319.343,8.29,14.32,47.84626,-54.09684
2020-11-08 19:09:01+00:00,318.4446,8.38,14.32,47.84626,-54.09684
2020-11-08 19:19:01+00:00,313.928,8.4,13.92,47.84626,-54.09684
2020-11-08 19:29:01+00:00,306.8696,8.39,13.92,47.84626,-54.09684
2020-11-08 19:39:01+00:00,299.043,8.32,13.92,47.84626,-54.09684
2020-11-08 19:49:01+00:00,296.1897,8.39,13.92,47.84626,-54.09684
2020-11-08 19:59:01+00:00,289.4714,8.4,13.92,47.84626,-54.09684
2020-11-08 20:09:01+00:00,282.868,8.4,13.92,47.84626,-54.09684
2020-11-08 20:19:01+00:00,276.8398,8.4,13.44,47.84626,-54.09684
2020-11-08 20:29:01+00:00,274.2897,8.4,13.44,47.84626,-54.09684
2020-11-08 20:39:01+00:00,266.6548,8.31,13.44,47.84626,-54.09684
2020-11-08 20:49:01+00:00,260.9131,8.46,13.44,47.84626,-54.09684
2020-11-08 20:59:01+00:00,257.483,8.61,13.44,47.84626,-54.09684
2020-11-08 21:09:01+00:00,254.2331,8.6,13.44,47.84626,-54.09684
2020-11-08 21:19:01+00:00,246.2765,8.4,13.13,47.84626,-54.09684
2020-11-08 21:29:01+00:00,243.6364,8.4,13.13,47.84626,-54.09684
2020-11-08 21:39:01+00:00,245.6131,8.4,13.13,47.84626,-54.09684
2020-11-08 21:49:01+00:00,243.0914,8.3,13.13,47.84626,-54.09684
2020-11-08 21:59:01+00:00,237.7098,8.3,13.13,47.84626,-54.09684
2020-11-08 22:09:01+00:00,236.7514,8.38,13.13,47.84626,-54.09684
2020-11-08 22:19:01+00:00,237.6731,8.4,12.81,47.84626,-54.09684
2020-11-08 22:29:01+00:00,236.0565,8.44,12.81,47.84626,-54.09684
2020-11-08 22:39:01+00:00,235.3481,8.49,12.81,47.84626,-54.09684
2020-11-08 22:49:01+00:00,236.4547,8.5,12.81,47.84626,-54.09684
2020-11-08 22:59:01+00:00,236.8781,8.5,12.81,47.84626,-54.09684
2020-11-08 23:09:01+00:00,236.4348,8.52,12.81,47.84626,-54.09684
2020-11-08 23:19:01+00:00,234.9749,8.62,12.73,47.84626,-54.09684
2020-11-08 23:29:01+00:00,233.9532,8.6,12.73,47.84626,-54.09684
2020-11-08 23:39:01+00:00,233.7113,8.6,12.73,47.84626,-54.09684
2020-11-08 23:49:01+00:00,233.9048,8.59,12.73,47.84626,-54.09684
2020-11-08 23:59:01+00:00,232.0615,8.6,12.73,47.84626,-54.09684
